User: anonymous   Login
Location: The D'Auria's Ocala Star Observatory
(29.0276°N, 82.1742°W)
Time: 18:48:08
(UTC-05:00)
Language:

Abrixas rocket - Orbit

View from above orbital plane
View from above orbital plane
View from above satellite
View from above satellite

Ground track
Ground track

The orbit data is extracted from the following two-line orbital elements,

1 25723U 99022C   16338.80652246  .00006483  00000-0  11518-3 0  9995
2 25723  48.4165 126.9999 0011003 181.5265 178.5647 15.51339236976139
Epoch (UTC): 03 December 2016 19:21:23
Eccentricity: 0.0011003
inclination: 48.4165°
perigee height: 405 km
apogee height: 420 km
right ascension of ascending node: 126.9999°
argument of perigee: 181.5265°
revolutions per day: 15.51339236
mean anomaly at epoch: 178.5647°
orbit number at epoch: 97613

The dashed part of the orbit path shows where the satellite is in the earth's shadow,  

DLR